GFSNIL_con_3kmhel_246.txt.gz
Helicity
447 483 463 434 431 424 391 339 295 254 193 166 215 283 251 252 248 236 220 206 249 327
491 522 492 444 424 421 408 370 334 309 265 228 257 268 291 289 306 319 305 307 368 361
615 605 536 523 430 412 434 407 434 366 340 320 299 303 333 369 408 402 379 372 433 426
625 559 562 537 490 443 437 440 431 411 417 391 360 354 374 409 433 436 458 425 410 391
602 635 606 556 558 458 444 448 429 464 438 395 415 424 411 440 430 520 462 439 465 422
648 649 613 598 545 496 490 459 455 459 455 420 423 459 503 504 481 487 465 435 405 409
581 582 582 557 603 524 523 525 475 467 436 519 503 492 509 525 510 485 440 431 424 417
443 452 526 596 556 503 524 506 524 590 570 505 532 595 625 577 534 502 452 419 431 430
404 438 509 512 494 478 507 555 633 618 562 486 506 563 587 605 585 567 458 516 514 498
439 404 407 378 417 504 539 609 557 543 519 557 498 566 716 665 646 563 541 574 558 543
312 349 384 358 391 449 513 507 564 543 503 523 527 599 672 646 598 460 543 570 526 503
252 268 265 282 349 417 446 447 427 500 554 520 512 523 726 835 821 759 661 569 483 445
170 272 315 355 405 416 423 450 503 559 517 562 631 546 661 609 641 663 651 559 475 391
134 173 251 346 452 530 587 613 556 568 527 539 549 594 582 549 590 607 603 510 446 377

GFSNIL_con_3kmhel_249.txt.gz
Helicity
470 486 431 379 366 354 362 369 317 348 310 276 248 249 252 249 228 215 201 222 238 253
526 507 496 428 428 372 334 327 367 353 337 350 327 279 259 243 254 246 210 213 267 228
624 587 567 559 463 422 362 392 391 401 355 337 336 315 275 233 287 284 286 315 308 291
638 605 600 576 501 451 416 427 436 420 389 345 334 339 323 299 349 313 367 371 292 325
571 617 673 591 542 506 436 462 453 425 379 361 336 339 343 362 349 388 407 429 391 376
481 597 650 595 583 547 496 451 474 423 390 379 351 351 352 365 388 404 483 481 433 366
503 570 611 582 601 568 532 495 473 413 394 369 342 345 359 424 494 522 496 476 399 250
515 608 597 566 572 535 511 473 436 442 411 410 430 415 411 440 524 568 524 452 429 290
502 526 505 495 512 515 456 454 435 391 476 496 428 400 430 494 533 528 535 515 375 342
422 445 445 417 446 449 427 403 402 447 475 456 401 452 515 560 566 571 456 330 446 532
341 336 355 384 392 366 398 416 469 420 446 486 439 499 542 547 555 569 584 622 579 499
283 315 321 304 336 397 422 415 398 412 434 476 474 470 554 631 594 662 704 602 601 528
228 226 248 281 315 360 353 369 415 440 459 473 434 454 569 642 632 773 747 659 558 512
186 230 300 348 349 373 396 407 419 453 474 422 390 497 613 655 554 586 691 633 592 559

GFSNIL_con_3kmhel_252.txt.gz
Helicity
385 380 337 321 315 304 259 235 249 263 235 248 271 293 289 247 215 228 197 233 270 272
414 405 349 330 347 324 281 247 264 295 314 300 296 295 326 289 261 273 239 232 289 293
416 423 415 426 402 371 337 323 300 316 315 337 328 348 334 291 296 304 280 300 322 368
381 390 374 414 431 447 447 413 372 341 331 324 319 350 361 328 343 316 311 365 343 319
370 426 441 448 398 430 465 492 453 393 362 330 317 339 341 370 393 373 376 366 398 398
339 373 416 409 416 479 486 489 472 432 405 387 362 336 327 321 376 396 384 379 404 441
351 408 463 457 394 439 471 504 499 438 394 385 369 340 310 340 395 401 420 395 418 449
326 375 414 396 371 414 450 481 475 490 418 400 358 353 343 351 402 445 407 385 405 437
303 357 437 438 402 422 472 489 504 452 420 364 343 342 412 432 461 462 434 430 442 493
311 321 316 376 387 419 428 437 395 354 352 299 319 369 441 478 474 473 492 495 496 400
325 319 294 322 287 311 373 384 362 322 308 311 336 367 442 476 425 403 409 437 445 438
329 235 298 301 281 280 316 313 326 338 366 376 396 365 417 425 388 390 449 402 397 546
334 358 326 289 263 323 298 321 403 417 354 357 411 351 421 425 476 507 479 522 665 599
341 320 320 356 372 381 398 403 424 415 405 375 350 275 356 531 505 478 502 562 591 529

GFSNIL_con_3kmhel_255.txt.gz
Helicity
224 247 257 231 226 214 196 191 213 220 205 215 197 195 203 189 184 220 231 222 210 222
279 271 248 254 267 269 221 166 181 226 243 246 243 239 243 213 187 209 243 225 234 249
296 310 309 304 284 266 257 246 225 227 230 234 229 241 266 234 229 225 230 241 235 254
276 294 294 303 265 254 247 243 250 276 257 248 243 233 252 253 267 265 271 278 288 287
265 284 291 279 256 241 239 270 267 271 277 271 265 257 264 263 286 280 281 311 318 333
258 270 279 265 225 268 259 254 272 276 303 318 318 294 268 277 284 292 307 330 343 352
235 257 276 264 249 263 274 277 297 311 305 318 338 317 302 308 278 270 265 338 328 346
208 240 251 241 234 243 251 282 303 293 268 302 324 349 331 320 284 301 283 331 310 352
236 281 286 269 233 238 254 293 309 276 258 282 313 319 366 331 304 330 364 388 386 411
195 202 226 241 240 246 269 288 279 273 241 237 260 305 343 365 342 365 376 420 488 507
144 131 142 186 232 241 253 304 306 265 260 237 256 318 346 406 377 371 376 409 418 451
256 162 150 163 186 208 251 245 220 234 234 232 272 335 376 382 388 418 375 360 365 409
289 388 200 219 222 213 256 227 253 258 241 259 334 355 354 348 422 406 395 367 343 337
388 404 423 289 313 312 282 306 321 357 375 349 359 347 363 462 416 407 436 427 418 405